Temperature
4 4 4 4 4 4 3 3 3 3 3 4 4 4 4 5 5 5 5 5 5 5 5 5 5 6 6 6 6 6 6 6 6 5 5 5 5 6
3 3 3 3 3 3 3 3 3 3 3 3 3 3 4 4 4 4 4 5 5 5 5 5 5 5 5 5 5 5 5 5 5 5 5 5 5 5
2 2 2 3 3 3 2 3 3 3 3 3 3 3 3 3 4 4 4 4 4 4 4 5 5 5 5 5 5 5 5 5 5 5 5 5 5 5
2 2 2 2 2 2 2 2 2 2 2 2 2 2 3 3 3 3 4 4 4 4 4 4 4 5 5 5 4 4 4 5 4 4 4 4 4 4
1 1 1 2 2 2 2 2 2 2 2 2 2 2 2 2 2 3 3 3 3 3 4 4 4 4 4 4 4 4 4 4 4 4 4 4 4 4
1 1 1 1 1 1 1 1 1 1 1 1 1 2 2 2 2 2 3 3 3 3 3 3 3 4 4 4 4 4 4 4 3 3 3 3 3 3
0 0 0 0 0 0 1 1 1 1 1 1 1 1 1 1 1 1 2 2 3 3 3 3 3 3 3 3 3 3 3 3 3 3 3 3 3 3
-0 -0 0 -0 -0 0 0 0 0 1 1 1 1 1 1 1 1 1 1 1 2 2 2 2 2 2 2 2 2 3 3 2 2 2 2 2 2 2
-1 -1 -0 -0 -0 -0 -0 -0 0 -0 -0 0 0 0 0 0 0 0 0 0 1 1 1 2 2 2 2 2 2 2 2 2 2 2 2 2 2 2
-1 -1 -1 -1 -1 -1 -0 -0 -0 -0 -0 -0 -0 -0 -0 -0 -0 -0 -0 -0 0 0 1 1 1 1 1 1 1 1 1 1 1 1 1 2 2 2
-2 -1 -1 -1 -1 -1 -1 -1 -1 -1 -1 -1 -1 -1 -1 -1 -1 -1 -0 -0 -0 -0 0 0 1 1 1 1 1 1 1 1 1 1 1 1 1 2
-2 -2 -2 -2 -2 -2 -2 -2 -1 -1 -1 -1 -1 -1 -1 -1 -1 -1 -1 -1 -1 -1 -0 -0 -0 -0 -0 0 0 1 1 1 1 1 1 1 1 1
-2 -2 -2 -2 -2 -2 -2 -2 -2 -2 -2 -2 -2 -2 -1 -1 -1 -1 -1 -1 -1 -1 -1 -1 -1 -1 -1 -1 -0 0 0 0 1 1 1 1 1 1
-3 -3 -3 -3 -2 -2 -2 -2 -2 -2 -2 -2 -2 -2 -2 -2 -1 -1 -1 -1 -1 -1 -1 -1 -1 -1 -1 -1 -1 -1 -0 -0 -0 0 0 1 1 1
-3 -3 -3 -3 -3 -3 -3 -3 -3 -2 -2 -2 -3 -2 -2 -2 -2 -2 -2 -2 -2 -2 -1 -1 -1 -1 -1 -1 -1 -1 -1 -1 -0 -0 0 0 0 0
-3 -3 -3 -3 -3 -3 -3 -3 -3 -3 -3 -3 -3 -3 -3 -2 -2 -2 -2 -2 -2 -2 -2 -2 -2 -2 -2 -1 -2 -2 -1 -1 -1 -1 -1 -0 -0 0
-3 -3 -3 -3 -3 -3 -3 -3 -3 -3 -3 -3 -3 -3 -3 -3 -2 -2 -2 -2 -2 -2 -2 -2 -2 -2 -2 -2 -2 -2 -2 -1 -1 -1 -1 -1 -0 -0
-3 -3 -3 -3 -4 -4 -3 -3 -3 -3 -3 -3 -3 -3 -3 -3 -3 -3 -2 -2 -2 -2 -2 -2 -2 -2 -2 -2 -2 -2 -2 -2 -2 -1 -1 -1 -1 -1
-3 -3 -4 -4 -4 -4 -4 -4 -4 -3 -3 -3 -3 -3 -3 -3 -3 -3 -3 -3 -3 -3 -2 -2 -2 -2 -2 -3 -3 -2 -2 -2 -2 -2 -2 -1 -1 -1
-4 -4 -4 -4 -4 -4 -4 -4 -4 -4 -3 -4 -3 -3 -3 -3 -3 -3 -3 -3 -3 -3 -3 -3 -2 -3 -3 -3 -3 -3 -2 -2 -2 -2 -2 -2 -2 -1
-4 -4 -4 -4 -4 -4 -4 -4 -4 -4 -4 -4 -4 -4 -4 -3 -3 -3 -3 -3 -3 -3 -3 -3 -3 -3 -3 -3 -3 -3 -3 -2 -2 -2 -2 -2 -2 -2
-4 -4 -4 -4 -4 -4 -4 -4 -4 -4 -4 -4 -4 -4 -4 -4 -3 -3 -3 -3 -3 -3 -3 -3 -3 -3 -3 -3 -3 -3 -3 -3 -3 -2 -2 -2 -2 -2
-4 -4 -4 -4 -4 -4 -4 -4 -4 -4 -4 -4 -4 -4 -4 -4 -4 -3 -3 -3 -3 -3 -3 -3 -4 -3 -3 -3 -3 -3 -3 -3 -3 -3 -2 -2 -2 -2
Wind_Speed
4 4 4 3 4 4 4 4 5 7 8 5 4 3 4 5 7 7 8 9 10 10 10 11 11 10 10 10 11 10 10 9 9 9 10 10 10 10
3 3 3 3 3 3 4 4 4 6 7 5 4 4 4 5 8 7 8 9 9 10 10 11 11 10 9 9 9 9 8 8 9 10 10 9 10 10
3 3 4 3 3 3 3 4 4 4 7 7 4 4 4 5 6 6 6 6 7 9 10 10 10 8 8 8 8 7 6 7 7 8 9 9 9 8
4 4 4 3 4 3 3 4 5 5 6 7 5 4 4 5 5 5 5 5 6 8 9 9 9 7 7 7 6 6 5 5 6 6 7 7 7 7
4 4 4 4 4 3 4 4 4 5 4 5 6 4 4 3 4 4 4 4 5 6 7 7 8 7 6 6 5 5 5 4 5 5 6 5 5 5
4 3 3 4 4 4 4 4 4 4 4 4 5 4 4 3 3 3 4 3 4 3 4 5 5 6 6 5 4 4 4 4 4 4 3 3 4 5
3 3 4 4 5 4 4 3 3 3 3 4 4 4 4 3 3 3 4 4 3 1 2 3 3 2 3 3 3 3 3 3 3 3 3 3 4 4
3 3 3 4 4 5 5 5 3 3 3 4 4 5 5 5 4 3 3 3 3 1 1 3 1 2 1 1 1 2 2 2 3 3 3 3 3 4
3 3 3 3 4 2 4 4 4 4 4 4 5 6 5 4 4 4 3 3 3 2 1 2 1 1 1 2 1 1 1 2 2 2 2 2 3 3
3 3 3 3 3 3 2 3 3 3 4 3 4 5 5 3 3 3 3 2 2 2 0 1 1 1 2 2 1 0 0 0 1 2 2 2 2 3
3 3 2 2 4 4 3 3 3 4 4 4 4 4 5 4 2 1 1 1 2 2 1 0 0 1 1 1 1 1 1 1 2 2 2 2 2 3
3 3 4 4 3 4 2 2 3 4 4 4 4 4 3 3 3 2 2 2 1 1 1 0 0 1 1 1 1 1 2 2 2 2 2 2 2 2
2 2 2 4 5 5 4 3 3 3 3 3 2 2 2 2 2 2 1 2 2 2 1 0 0 0 0 1 2 1 1 2 2 3 3 3 3 2
2 2 2 5 6 6 5 4 4 4 2 2 2 2 2 2 2 2 1 1 1 2 2 1 1 1 1 1 2 1 2 1 1 2 3 3 3 3
2 3 4 5 5 4 5 5 4 2 2 2 2 2 2 2 2 1 2 1 2 2 2 2 2 2 1 2 1 1 2 2 2 1 2 2 2 2
2 2 4 5 4 4 4 4 3 2 2 2 2 2 2 2 2 1 1 1 1 1 2 2 2 2 1 1 1 1 2 1 2 2 2 2 2 2
1 1 2 2 2 3 3 3 3 2 2 2 2 2 2 2 2 1 1 0 0 1 2 2 2 1 1 1 1 1 1 2 2 2 1 2 2 2
3 2 2 2 2 3 3 3 3 3 3 2 2 1 1 1 1 1 0 0 0 1 1 1 1 1 1 1 1 2 1 2 2 2 1 1 2 3
2 2 2 2 2 2 3 3 3 3 3 2 2 2 1 1 1 1 1 0 0 1 1 1 1 1 1 1 2 1 1 1 1 1 1 1 1 2
2 2 2 2 3 3 3 3 3 3 2 2 2 2 2 1 1 0 1 0 0 1 1 1 1 1 1 1 1 2 2 1 0 1 2 2 2 3
3 3 2 2 3 3 3 3 3 2 2 2 2 2 1 1 1 1 0 1 1 1 1 1 2 1 0 1 1 2 3 4 2 0 1 1 2 2
3 3 3 3 3 3 3 3 3 2 2 2 1 1 1 1 1 0 0 0 0 0 0 1 2 2 1 1 1 1 3 4 5 6 5 2 0 1
4 4 3 3 3 3 2 3 3 2 2 2 2 1 1 1 1 1 0 0 1 1 1 1 1 2 2 1 1 1 2 3 3 4 4 6 5 3
Wind_Direction
252 254 253 259 254 253 249 246 251 274 277 272 273 281 286 277 275 272 267 270 270 268 270 270 269 260 257 255 249 253 261 262 259 265 264 267 275 282
263 253 255 251 251 258 255 259 252 259 272 269 268 276 283 287 283 276 272 276 276 275 274 271 267 259 255 257 248 249 251 255 255 258 266 266 275 284
274 260 264 258 248 254 258 259 260 257 270 282 272 271 273 281 291 285 279 275 274 275 275 273 264 260 256 259 250 246 243 249 254 257 267 267 276 278
266 265 272 275 261 251 253 257 261 259 262 280 283 275 271 273 278 282 285 280 275 275 273 272 264 264 258 259 245 238 237 246 251 259 274 270 273 276
265 262 272 273 275 268 258 257 262 264 263 267 279 278 274 281 285 285 283 281 284 284 276 273 267 269 261 249 242 244 241 239 243 256 275 273 279 285
276 271 270 266 265 264 265 261 263 264 263 262 274 283 281 274 271 281 296 292 289 299 290 291 289 279 268 250 250 248 239 239 239 244 261 280 284 292
289 279 275 278 277 271 271 263 260 261 262 267 274 282 284 281 280 278 282 297 297 282 292 301 300 280 272 258 256 251 236 226 224 238 249 268 283 294
285 293 294 290 288 291 289 284 278 270 271 278 282 276 283 283 289 285 282 290 291 311 302 301 305 272 282 279 256 222 219 231 240 246 247 262 279 291
287 298 305 305 310 298 302 310 313 304 282 273 280 281 279 275 271 273 276 278 280 297 326 289 292 284 323 324 283 249 256 252 250 257 270 280 288 289
294 285 288 300 303 307 310 315 311 308 300 292 286 289 288 275 251 253 258 284 297 309 248 260 296 301 313 314 301 118 25 302 294 304 302 304 297 291
310 305 306 296 308 320 319 316 319 322 330 321 313 313 309 304 292 278 271 268 292 294 265 224 308 337 308 287 324 358 356 333 323 327 330 323 308 299
312 307 314 320 321 327 323 310 309 314 325 333 337 339 340 333 313 276 254 255 267 281 296 83 89 24 333 311 323 349 355 344 337 336 330 329 325 326
314 315 323 337 334 331 328 320 315 317 317 320 323 337 340 340 337 315 269 235 237 247 267 252 268 328 276 310 316 325 352 343 332 327 319 323 327 343
300 307 321 336 337 339 341 346 339 334 330 333 328 328 328 325 319 315 312 282 239 248 252 242 241 239 269 294 298 319 325 329 331 322 330 330 331 326
321 334 340 341 342 348 356 352 344 345 347 336 324 318 321 320 323 338 355 8 2 322 294 260 241 245 235 252 268 293 316 317 326 326 339 340 327 332
339 354 358 358 359 356 351 351 347 344 337 317 315 322 331 337 332 336 336 338 350 341 343 319 257 215 238 254 224 277 302 287 313 324 320 328 335 334
7 30 22 7 6 358 349 346 346 347 342 330 327 329 334 336 333 338 330 329 337 326 340 2 8 8 230 235 240 269 290 297 294 312 324 320 315 324
23 30 12 357 347 340 336 339 343 343 335 331 331 324 322 321 321 329 0 41 349 327 338 353 12 24 27 10 268 243 284 288 304 324 322 299 321 332
36 22 351 337 334 331 332 330 329 332 332 335 341 338 332 332 331 347 6 16 22 7 347 350 11 29 37 352 353 354 276 293 323 339 336 320 303 319
17 360 338 332 333 334 331 327 326 334 344 348 352 352 348 348 359 3 355 343 13 18 9 7 5 346 261 268 310 331 338 287 281 322 332 335 337 336
359 353 343 336 333 332 329 325 326 330 339 349 354 356 350 355 359 353 346 30 52 66 31 343 326 351 39 75 48 357 353 1 13 347 328 340 348 10
350 348 343 336 331 328 329 327 329 335 342 348 343 347 346 346 349 352 38 82 74 86 29 340 353 30 53 74 64 358 356 3 21 34 34 32 1 24
345 343 337 333 335 333 334 334 335 338 343 342 341 340 338 346 353 5 22 87 107 104 97 50 28 40 53 78 72 40 27 20 24 33 25 22 30 17
Height
1436 1436 1437 1437 1438 1438 1438 1439 1438 1434 1431 1431 1432 1432 1432 1432 1431 1431 1431 1431 1431 1432 1432 1433 1433 1434 1435 1436 1437 1438 1438 1438 1440 1440 1440 1441 1441 1441
1431 1431 1432 1432 1433 1433 1433 1433 1433 1431 1428 1426 1427 1427 1427 1427 1427 1426 1426 1426 1427 1427 1427 1428 1428 1428 1429 1431 1432 1432 1433 1433 1434 1434 1434 1435 1435 1436
1426 1426 1427 1427 1427 1427 1427 1428 1427 1427 1424 1422 1422 1422 1422 1422 1422 1422 1421 1421 1421 1422 1422 1422 1422 1422 1424 1425 1426 1426 1427 1428 1428 1428 1429 1429 1430 1430
1422 1422 1422 1422 1422 1422 1422 1422 1422 1421 1421 1417 1417 1417 1417 1417 1417 1417 1416 1416 1416 1416 1416 1416 1417 1417 1418 1420 1420 1421 1422 1422 1423 1424 1424 1424 1425 1425
1418 1418 1417 1417 1417 1417 1417 1417 1417 1416 1416 1414 1413 1412 1413 1413 1413 1412 1412 1411 1411 1411 1411 1412 1412 1413 1414 1415 1415 1416 1417 1417 1419 1419 1420 1420 1420 1421
1415 1414 1414 1414 1414 1413 1413 1412 1412 1411 1411 1410 1409 1409 1408 1409 1409 1408 1407 1407 1407 1407 1407 1407 1408 1408 1409 1410 1411 1412 1412 1414 1414 1415 1416 1416 1417 1417
1411 1411 1411 1411 1410 1410 1410 1409 1408 1407 1407 1406 1406 1405 1405 1405 1405 1404 1403 1403 1403 1403 1403 1403 1403 1404 1405 1406 1407 1408 1409 1410 1410 1411 1412 1412 1413 1414
1408 1408 1407 1407 1407 1407 1406 1406 1405 1404 1404 1403 1402 1402 1401 1402 1401 1401 1400 1399 1399 1400 1400 1400 1400 1400 1401 1402 1403 1404 1405 1406 1407 1407 1408 1409 1409 1410
1406 1405 1405 1405 1404 1403 1402 1402 1402 1402 1402 1401 1399 1399 1398 1398 1398 1397 1397 1397 1396 1397 1397 1396 1397 1397 1398 1399 1400 1401 1402 1403 1403 1404 1404 1405 1406 1406
1403 1403 1402 1402 1401 1401 1400 1399 1398 1398 1398 1397 1396 1396 1395 1395 1395 1395 1394 1394 1394 1394 1395 1394 1394 1395 1396 1397 1398 1398 1399 1400 1401 1401 1401 1402 1403 1403
1400 1400 1399 1399 1398 1398 1397 1396 1395 1395 1395 1394 1393 1392 1392 1392 1392 1393 1392 1392 1391 1392 1393 1392 1392 1393 1394 1394 1395 1396 1397 1397 1398 1398 1399 1399 1400 1400
1397 1397 1397 1396 1396 1395 1395 1394 1393 1392 1392 1391 1390 1390 1389 1390 1390 1391 1390 1390 1390 1390 1390 1391 1391 1391 1391 1392 1393 1394 1394 1395 1395 1396 1396 1396 1397 1396
1395 1394 1394 1394 1394 1393 1393 1392 1391 1390 1389 1389 1388 1387 1387 1387 1388 1388 1388 1389 1388 1388 1389 1390 1389 1389 1390 1390 1390 1391 1391 1392 1392 1393 1393 1393 1394 1393
1393 1392 1392 1392 1392 1391 1390 1390 1389 1388 1387 1386 1386 1385 1385 1385 1385 1385 1386 1386 1387 1387 1388 1388 1388 1388 1388 1388 1388 1389 1389 1390 1390 1390 1390 1391 1391 1391
1391 1391 1390 1390 1390 1389 1388 1388 1387 1386 1385 1385 1384 1384 1384 1384 1384 1384 1384 1384 1385 1385 1386 1386 1386 1386 1386 1386 1386 1387 1387 1387 1388 1388 1388 1388 1387 1387
1390 1390 1389 1388 1388 1387 1387 1386 1386 1385 1384 1384 1383 1383 1382 1382 1382 1382 1382 1382 1383 1383 1384 1385 1385 1385 1385 1385 1385 1385 1385 1385 1386 1386 1386 1385 1386 1385
1389 1388 1387 1386 1386 1385 1385 1385 1384 1383 1383 1382 1382 1381 1381 1380 1380 1380 1381 1381 1381 1381 1382 1383 1384 1384 1384 1384 1383 1383 1384 1384 1384 1384 1384 1383 1383 1383
1388 1387 1386 1385 1385 1384 1384 1383 1383 1382 1381 1381 1380 1380 1379 1379 1379 1379 1380 1380 1380 1380 1381 1381 1382 1382 1383 1382 1383 1382 1382 1382 1382 1382 1382 1382 1381 1382
1387 1386 1386 1385 1384 1384 1383 1382 1382 1381 1381 1380 1379 1379 1378 1378 1378 1378 1378 1379 1379 1379 1379 1380 1380 1380 1380 1380 1381 1382 1381 1381 1381 1381 1381 1381 1380 1380
1386 1385 1385 1385 1384 1383 1383 1382 1381 1381 1380 1380 1379 1378 1378 1377 1377 1377 1377 1378 1378 1378 1379 1379 1379 1380 1380 1380 1380 1381 1381 1381 1380 1380 1380 1380 1380 1381
1386 1385 1385 1384 1383 1383 1382 1382 1381 1380 1380 1379 1378 1378 1377 1377 1376 1376 1377 1377 1377 1377 1377 1378 1379 1380 1380 1379 1379 1379 1380 1381 1380 1380 1379 1379 1379 1379
1386 1386 1385 1384 1384 1383 1382 1381 1381 1380 1379 1379 1378 1377 1377 1376 1376 1376 1376 1376 1377 1377 1377 1378 1378 1379 1379 1379 1378 1379 1380 1380 1380 1380 1380 1380 1379 1379
1387 1386 1385 1384 1383 1383 1382 1381 1380 1380 1379 1378 1377 1377 1376 1376 1376 1375 1375 1376 1376 1376 1377 1377 1378 1378 1378 1379 1379 1379 1379 1380 1380 1380 1381 1381 1381 1381